DW4360 Weather Reports


time (UTC)temp
F
wind
direction
speed
knots
gust
knots
rain 1hr
in
rain 24hr
in
rain mn
in
humidity
%
barometer
mb
20260905221733 73 327 0.0 0.0 0.00 0.00 0.01 56 1014.7
20260905220732 73 328 0.0 0.0 0.00 0.00 0.01 51 1014.9
20260905215731 74 331 0.0 0.0 0.00 0.00 0.01 51 1014.8
20260905214730 75 306 0.0 0.0 0.00 0.00 0.01 49 1014.9
20260905213729 75 293 0.0 0.0 0.00 0.00 0.01 50 1015.0
20260905212728 74 338 0.0 0.0 0.00 0.00 0.01 52 1014.9
20260905205725 73 340 3.5 0.0 0.00 0.00 0.01 53 1015.2
20260905204724 72 344 0.0 0.0 0.00 0.00 0.01 54 1015.2
20260905203723 73 76 0.0 0.0 0.00 0.00 0.01 54 1015.2
20260905202722 72 335 0.0 0.0 0.00 0.00 0.01 58 1015.2
20260905201721 71 328 0.0 0.0 0.00 0.00 0.01 59 1015.2
20260905200720 71 80 0.0 0.0 0.00 0.00 0.01 61 1015.4
20260905195719 71 331 0.0 0.0 0.00 0.00 0.01 61 1015.4
20260905194718 71 331 0.0 0.0 0.00 0.00 0.01 60 1015.4
20260905193717 70 54 0.0 0.0 0.00 0.00 0.01 64 1015.6
20260905192716 70 343 0.0 0.0 0.00 0.00 0.01 63 1015.6
20260905191715 69 121 0.0 0.0 0.00 0.00 0.00 64 1015.8
20260905190714 69 120 0.0 0.0 0.00 0.00 0.00 66 1015.8
20260905185713 68 121 0.0 0.0 0.00 0.00 0.00 69 1015.9
20260905184712 68 317 0.0 0.0 0.00 0.00 0.00 67 1016.0
20260905183711 68 322 0.0 0.0 0.00 0.00 0.00 68 1016.1
20260905182710 68 328 0.0 0.0 0.00 0.00 0.00 70 1016.2
20260905181709 68 336 0.0 0.0 0.00 0.00 0.00 72 1016.2
20260905180708 67 345 0.0 0.0 0.00 0.00 0.00 73 1016.3
20260905175707 66 325 0.9 0.0 0.00 0.00 0.00 74 1016.3
20260905172704 63 329 0.0 0.0 0.00 0.00 0.00 82 1016.3
20260905171702 62 334 0.0 0.0 0.00 0.00 0.00 83 1016.4
20260905165700 60 55 0.0 0.0 0.00 0.00 0.00 89 1016.4
20260905164659 58 158 0.0 0.0 0.00 0.00 0.00 92 1016.4
20260905162657 58 172 0.0 0.0 0.00 0.00 0.00 93 1016.4
20260905161656 57 174 0.0 0.0 0.00 0.00 0.00 93 1016.5
20260905160656 58 175 0.0 0.0 0.00 0.00 0.00 94 1016.6
20260905155654 58 174 0.0 0.0 0.00 0.00 0.00 94 1016.5
20260905154654 58 174 0.0 0.0 0.00 0.00 0.00 94 1016.5
20260905153653 58 174 0.0 0.0 0.00 0.00 0.00 94 1016.5
20260905152651 57 175 0.0 0.0 0.00 0.00 0.07 94 1016.5
20260905151651 57 174 0.0 0.0 0.00 0.00 0.07 94 1016.5
20260905150649 57 174 0.0 0.0 0.00 0.00 0.07 94 1016.4
20260905145648 57 174 0.0 0.0 0.00 0.00 0.07 94 1016.4
20260905144647 57 174 0.0 0.0 0.00 0.00 0.07 94 1016.4
20260905143646 56 174 0.0 0.0 0.00 0.00 0.07 94 1016.4
20260905142645 56 174 0.0 0.0 0.00 0.00 0.07 94 1016.4
20260905141644 56 174 0.0 0.0 0.00 0.00 0.07 94 1016.3
20260905135643 57 174 0.0 0.0 0.00 0.00 0.07 94 1016.3
20260905134642 57 174 0.0 0.0 0.00 0.00 0.07 94 1016.3
20260905132639 56 174 0.0 0.0 0.00 0.00 0.07 94 1016.2
20260905131638 56 174 0.0 0.0 0.00 0.00 0.07 94 1016.1
20260905130637 56 174 0.0 0.0 0.00 0.00 0.07 94 1015.9
20260905125637 56 174 0.0 0.0 0.00 0.00 0.07 94 1015.9
20260905122633 57 174 0.0 0.0 0.00 0.00 0.07 94 1015.8
20260905121632 56 174 0.0 0.0 0.00 0.00 0.07 94 1015.8
20260905115630 56 174 0.0 0.0 0.00 0.00 0.07 93 1015.7
20260905112627 56 174 0.0 0.0 0.00 0.00 0.07 93 1015.8
20260905111626 56 174 0.0 0.0 0.00 0.00 0.07 93 1015.7
20260905110625 57 174 0.0 0.0 0.00 0.00 0.07 93 1015.7
20260905104623 57 173 0.0 0.0 0.00 0.00 0.07 94 1015.7
20260905103622 57 173 0.0 0.0 0.00 0.00 0.07 94 1015.8
20260905102621 56 173 0.0 0.0 0.00 0.00 0.07 93 1015.8
20260905101620 56 173 0.0 0.0 0.00 0.00 0.07 93 1015.8
20260905100619 56 173 0.0 0.0 0.00 0.00 0.07 93 1015.8
20260905092615 57 173 0.0 0.0 0.00 0.00 0.07 94 1015.6
20260905091614 57 173 0.0 0.0 0.00 0.00 0.07 93 1015.6
20260905085612 57 173 0.0 0.0 0.00 0.00 0.07 93 1015.6
20260905084611 57 173 0.0 0.0 0.00 0.00 0.07 93 1015.6
20260905082609 57 173 0.0 0.0 0.00 0.00 0.07 93 1015.4
20260905080607 57 173 0.0 0.0 0.00 0.00 0.07 93 1015.4
20260905075606 57 173 0.0 0.0 0.00 0.00 0.07 93 1015.3
20260905074605 57 173 0.0 0.0 0.00 0.00 0.07 93 1015.3
20260905073604 57 173 0.0 0.0 0.00 0.00 0.07 93 1015.2
20260905072603 57 173 0.0 0.0 0.00 0.00 0.07 93 1015.3
20260905071602 57 173 0.0 0.0 0.00 0.00 0.07 93 1015.3
20260905070601 57 173 0.0 0.0 0.00 0.00 0.07 93 1015.1
20260905065559 57 173 0.0 0.0 0.00 0.00 0.06 93 1015.1
20260905064559 57 173 0.0 0.0 0.00 0.00 0.06 93 1015.0
20260905063557 57 173 0.0 0.0 0.00 0.00 0.06 93 1014.9
20260905062557 57 173 0.0 0.0 0.00 0.00 0.06 93 1014.8
20260905061555 57 173 0.0 0.0 0.00 0.00 0.06 93 1014.6
20260905055553 57 173 0.0 0.0 0.00 0.00 0.06 93 1014.6
20260905054552 57 173 0.0 0.0 0.00 0.00 0.06 93 1014.7
20260905053551 57 173 0.0 0.0 0.00 0.00 0.06 93 1014.6
20260905044547 56 173 0.0 0.0 0.00 0.00 0.06 93 1014.5
20260905043545 56 172 0.0 0.0 0.00 0.00 0.06 92 1014.5
20260905042544 56 172 0.0 0.0 0.00 0.00 0.06 91 1014.6
20260905041543 56 172 0.0 0.0 0.00 0.00 0.06 91 1014.5
20260905040542 57 172 0.0 0.0 0.00 0.00 0.06 91 1014.5
20260905035542 57 172 0.0 0.0 0.00 0.00 0.06 90 1014.3
20260905034541 57 172 0.0 0.0 0.00 0.00 0.06 90 1014.2
20260905033539 58 172 0.0 0.0 0.00 0.00 0.06 90 1014.1
20260905032539 58 172 0.0 0.0 0.00 0.00 0.06 90 1014.0
20260905031539 58 172 0.0 0.0 0.00 0.00 0.06 90 1013.9
20260905030536 59 172 0.0 0.0 0.00 0.00 0.06 89 1013.8
20260905025535 59 172 0.0 0.0 0.00 0.00 0.06 89 1013.7
20260905024534 59 172 0.0 0.0 0.00 0.00 0.06 89 1013.8
20260905023534 60 172 0.0 0.0 0.00 0.00 0.06 88 1013.7
20260905022532 60 172 0.0 0.0 0.00 0.00 0.06 88 1013.8
20260905021531 60 172 0.0 0.0 0.00 0.00 0.05 88 1013.8
20260905020530 61 172 0.0 0.0 0.00 0.00 0.05 88 1013.7
20260905015529 61 172 0.0 0.0 0.00 0.00 0.05 88 1013.5
20260905014528 61 172 0.0 0.0 0.00 0.00 0.05 87 1013.5
20260905012526 61 172 0.0 0.0 0.00 0.00 0.05 88 1013.3
20260905011525 61 172 0.0 0.0 0.00 0.00 0.05 88 1013.2
20260905010524 61 172 0.0 0.0 0.00 0.00 0.05 88 1013.2
20260905005523 61 172 0.0 0.0 0.00 0.00 0.05 88 1013.1
20260905003521 61 172 0.0 0.0 0.00 0.00 0.05 87 1013.1
20260905002520 61 172 0.0 0.0 0.00 0.00 0.05 88 1013.0
20260905001519 61 172 0.0 0.0 0.00 0.00 0.05 88 1013.0
20260905000518 61 172 0.0 0.0 0.00 0.00 0.04 88 1013.1
20260904235517 61 171 0.0 0.0 0.00 0.00 0.04 89 1013.2
20260904233515 61 171 0.0 0.0 0.00 0.00 0.04 89 1013.2
20260904231513 60 171 0.0 0.0 0.00 0.00 0.04 92 1013.0
20260904230512 59 171 0.0 0.0 0.00 0.00 0.04 91 1013.0
20260904225511 58 171 0.0 0.0 0.00 0.00 0.03 90 1013.0
20260904224510 58 171 0.0 0.0 0.00 0.00 0.03 90 1012.9
20260904223509 58 171 0.0 0.0 0.00 0.00 0.03 89 1013.0